User: anonymous   Login
Location: Unspecified
(0.0000°N, 0.0000°E)
Time: 22:46:56
(UTC+02:00)
Language:

Cosmos 1758 - Orbit

View from above orbital plane
View from above orbital plane
View from above satellite
View from above satellite

Ground track
Ground track

The orbit data is extracted from the following two-line orbital elements,

1 16791U 86046A   16243.51480079  .00000112  00000-0  60208-5 0  9993
2 16791  82.4719 315.2131 0016601   3.8957 356.2395 15.04108740641980
Epoch (UTC): 30 August 2016 12:21:18
Eccentricity: 0.0016601
inclination: 82.4719°
perigee height: 543 km
apogee height: 566 km
right ascension of ascending node: 315.2131°
argument of perigee: 3.8957°
revolutions per day: 15.04108740
mean anomaly at epoch: 356.2395°
orbit number at epoch: 64198

The dashed part of the orbit path shows where the satellite is in the earth's shadow,  

DLR